Wind_Speed
15 14 14 14 13 13 12 11 11 11 10 10 10 9 9 9 8 7 7 6 6 5 5 4 4 3 3 3 3 4 4 4 5 5 4 4 4 5 5 5 5 5
16 16 16 15 14 14 13 12 12 11 11 11 10 10 9 9 9 8 8 7 7 6 6 5 5 4 4 4 4 4 4 5 6 5 5 5 5 5 5 6 6 6
16 17 16 16 15 15 14 13 13 12 12 11 11 10 10 10 9 9 9 9 8 8 7 7 6 5 5 5 5 4 4 5 6 5 5 6 5 5 5 6 6 6
16 17 17 17 16 16 15 15 14 14 13 13 12 12 11 11 10 10 10 10 9 9 8 7 7 6 6 6 5 5 5 6 6 5 6 6 6 6 6 6 6 6
16 16 17 17 17 17 17 16 15 15 15 14 14 13 13 12 12 12 11 11 11 10 9 8 7 7 7 7 6 5 5 6 6 5 5 5 5 6 6 6 6 6
17 17 17 18 18 18 18 17 17 16 16 16 15 15 14 14 14 13 12 12 11 11 10 9 9 8 8 7 7 6 5 5 5 5 5 5 5 5 6 6 6 5
19 18 18 18 19 19 19 18 18 18 17 17 17 16 16 15 15 15 14 13 12 12 11 10 10 10 9 9 8 7 7 6 6 6 6 6 5 6 6 6 6 6
21 20 20 19 19 20 20 20 19 19 18 18 19 18 17 17 16 16 15 14 13 12 12 11 11 10 10 10 9 9 8 7 7 7 7 7 6 6 6 6 6 6
21 21 21 21 21 21 21 21 21 20 20 20 20 20 19 18 17 17 16 16 15 13 13 12 11 11 11 11 10 10 10 9 8 8 8 8 8 7 7 7 7 6
22 22 22 22 23 23 23 23 22 22 21 22 22 21 21 20 19 18 18 17 16 15 14 13 13 12 12 12 12 12 11 11 10 10 10 10 9 9 9 8 8 8
22 22 23 23 23 24 25 24 24 23 22 23 24 24 23 22 21 20 20 19 18 17 16 15 14 14 13 13 13 13 13 13 12 12 11 11 10 10 10 9 9 9
20 22 23 24 25 25 25 26 26 25 24 24 25 25 24 24 23 22 21 21 20 19 18 17 16 16 15 15 15 14 15 14 14 13 13 12 12 12 11 11 11 11
20 20 22 24 25 26 26 27 27 26 26 25 25 25 25 25 25 25 24 23 22 21 20 19 19 18 18 17 17 16 16 16 16 16 15 14 13 13 13 13 13 13
22 22 21 22 23 25 27 28 28 28 28 27 26 25 26 26 27 26 26 25 24 23 23 22 22 21 21 20 19 19 19 18 18 18 17 16 15 15 15 15 15 14
24 24 23 22 23 24 26 28 30 30 29 29 28 27 27 28 28 28 28 27 26 25 25 25 24 25 24 23 23 21 21 21 20 19 18 18 17 16 16 17 16 16
28 27 26 26 26 25 26 27 29 31 32 32 31 30 30 30 29 29 29 29 28 28 28 27 27 28 27 26 25 24 23 23 21 20 19 20 19 19 18 18 18 18
30 29 29 29 29 28 27 27 28 30 32 33 33 33 32 32 32 32 32 32 31 30 30 30 30 31 30 28 27 26 25 25 24 23 22 22 22 21 20 20 19 19
29 30 29 29 30 30 29 29 29 29 30 32 34 35 35 35 34 34 34 33 33 33 32 32 33 34 33 30 29 28 26 26 26 25 25 25 24 23 23 22 21 20
28 29 29 28 29 30 31 31 32 32 32 32 32 33 35 36 37 36 36 35 34 34 34 34 35 37 35 32 31 30 28 27 27 27 27 27 26 25 25 24 23 22
28 28 29 28 28 29 30 30 32 34 35 34 34 33 33 35 36 37 38 38 37 36 36 37 39 38 35 33 33 32 30 29 28 28 28 28 28 27 27 26 25 24
26 27 28 29 29 29 29 29 30 32 34 35 36 36 36 36 36 37 39 40 40 39 39 41 41 38 36 35 34 34 33 31 31 30 29 29 29 28 28 28 27 27
27 27 27 27 28 29 29 28 29 30 32 33 34 36 37 37 37 36 38 39 41 41 42 42 41 39 39 38 37 36 35 33 32 32 30 30 30 30 30 30 29 28
28 28 27 28 28 28 28 29 29 30 32 32 32 33 34 36 36 37 38 38 40 41 42 43 43 42 42 42 41 38 37 36 34 33 32 31 31 32 32 31 30 30
29 28 29 30 30 28 28 28 29 30 31 31 32 33 34 35 35 37 38 39 39 41 44 46 45 42 42 45 45 41 38 38 37 34 32 32 31 32 32 31 31 31
30 30 30 30 30 29 28 27 27 28 29 30 31 33 34 34 35 37 38 38 38 41 44 45 44 43 44 46 47 44 42 41 39 35 34 34 33 33 33 32 32 32
33 33 32 32 31 31 30 28 27 27 28 30 32 33 33 33 34 35 35 34 35 36 38 40 42 46 49 49 49 47 45 45 43 38 36 36 36 35 34 34 33 33
Wind_Direction
218 218 220 223 224 224 222 220 219 215 212 210 207 206 205 201 202 201 202 206 205 203 201 199 203 214 237 255 269 281 287 293 289 286 289 290 288 288 289 288 287 290
222 222 221 223 225 226 225 224 224 219 217 216 214 213 211 206 206 206 209 213 214 216 215 215 221 228 244 259 267 277 285 287 284 283 284 283 282 283 285 285 284 285
225 226 225 226 226 227 228 228 228 226 223 223 222 223 221 217 216 215 217 221 223 225 226 226 232 237 247 257 268 280 287 288 286 285 283 278 276 278 278 279 278 274
226 230 231 230 231 230 230 230 230 231 230 230 230 231 230 228 227 226 226 228 228 231 233 232 236 241 247 255 265 278 285 287 286 285 283 278 273 272 272 272 269 265
229 231 234 235 235 234 232 231 231 231 233 233 234 235 235 234 233 232 234 235 234 234 236 237 239 242 247 253 260 270 281 284 282 278 275 274 272 270 268 266 264 263
234 233 235 236 238 238 236 234 233 233 233 235 236 236 236 238 239 238 237 239 240 240 241 242 242 243 246 250 255 259 265 271 276 276 268 264 265 264 263 262 259 258
239 238 237 238 239 240 240 238 237 236 236 236 237 237 237 239 242 243 243 242 244 246 247 248 247 247 247 248 252 253 253 255 260 265 262 258 257 256 256 256 254 253
242 242 242 242 242 241 241 240 240 240 241 241 242 241 240 241 244 247 247 247 248 249 250 252 252 253 253 253 253 254 254 250 248 252 254 250 247 247 247 248 250 252
243 244 244 244 245 244 244 243 242 243 244 245 247 246 245 244 245 248 250 251 251 252 252 253 254 256 259 261 260 258 257 255 251 253 252 245 239 237 237 239 244 247
242 243 243 244 245 246 246 246 245 245 246 247 249 249 248 247 247 248 250 252 253 253 253 253 253 254 257 262 265 263 262 260 258 257 255 250 243 239 236 233 236 238
245 244 243 242 243 245 246 246 247 247 247 248 250 250 250 250 248 247 248 250 252 253 253 252 253 254 255 258 262 264 265 266 265 264 263 261 255 250 246 240 237 236
251 249 247 244 244 244 245 246 247 248 247 248 251 252 252 252 252 251 249 249 250 250 251 251 252 254 256 258 260 262 265 267 268 268 268 267 264 260 257 251 245 242
254 253 251 249 248 247 247 246 247 248 248 249 252 254 255 255 255 255 253 252 251 251 251 250 251 253 255 257 259 261 264 266 267 269 269 269 270 268 265 260 253 249
254 254 253 253 252 250 249 248 248 248 248 248 249 252 255 257 256 256 255 255 254 253 253 252 252 252 252 254 256 257 260 262 264 266 268 269 270 271 271 268 263 258
254 254 253 253 253 252 252 250 248 248 248 248 248 248 251 255 257 258 257 256 255 254 254 254 253 253 252 252 254 255 256 258 260 263 266 268 269 270 271 272 271 269
254 255 254 254 253 252 252 252 251 249 247 248 249 248 249 251 255 258 258 257 256 255 254 254 254 254 253 252 253 254 255 257 259 260 262 264 266 267 268 270 272 274
254 255 255 255 255 254 253 253 254 252 250 249 249 249 249 249 251 254 257 259 259 258 257 256 255 255 254 253 253 254 255 258 259 259 260 262 263 264 265 267 269 272
254 256 256 255 255 254 254 254 254 255 254 252 251 250 250 250 250 252 254 258 261 262 261 260 258 257 255 254 254 254 254 256 257 259 260 261 261 262 262 263 264 267
254 256 258 257 255 254 255 256 255 255 254 254 253 252 252 253 253 254 254 255 257 259 261 262 261 259 258 257 257 256 255 256 257 258 259 260 261 262 262 262 262 263
255 258 259 259 257 256 256 257 257 256 255 255 255 255 256 256 255 255 256 255 255 256 258 260 261 261 262 261 260 259 256 255 256 257 258 259 260 261 261 262 262 262
258 260 261 261 260 259 258 259 259 259 258 258 259 259 258 258 257 256 256 255 254 254 255 257 260 264 266 266 264 262 260 257 256 257 258 259 260 260 261 261 260 261
261 261 261 261 261 260 260 260 260 260 260 260 262 261 258 257 258 258 258 258 256 254 253 255 258 260 262 263 263 262 261 260 258 258 259 260 261 261 261 262 263 263
260 260 259 260 261 262 262 261 259 259 259 259 261 260 257 256 256 255 258 263 261 256 253 252 254 254 253 254 255 256 258 260 259 258 258 260 262 264 265 266 266 265
258 259 259 261 262 262 262 261 260 259 259 260 260 260 258 259 259 258 259 261 261 258 254 252 251 251 251 250 250 250 252 255 256 257 257 258 259 261 263 262 262 262
255 255 256 259 261 261 260 262 263 262 261 260 260 259 258 258 261 263 262 260 259 259 259 257 252 250 249 249 249 248 249 251 251 253 255 255 253 253 256 259 260 262
254 253 253 254 257 259 259 262 265 266 263 260 257 258 258 257 257 260 262 260 259 260 261 260 256 254 254 252 250 249 248 249 250 250 251 254 255 255 257 260 261 262
Height
5955 5955 5956 5957 5958 5959 5960 5961 5961 5962 5963 5963 5964 5964 5965 5966 5966 5967 5968 5968 5969 5970 5970 5970 5971 5971 5971 5971 5971 5971 5971 5971 5971 5971 5971 5971 5971 5971 5971 5971 5970 5971
5955 5955 5956 5957 5958 5958 5959 5960 5961 5962 5963 5963 5964 5965 5965 5965 5966 5967 5967 5968 5969 5969 5970 5970 5970 5971 5971 5970 5971 5971 5971 5971 5971 5971 5971 5971 5971 5971 5971 5971 5970 5971
5954 5955 5956 5957 5957 5958 5959 5960 5961 5962 5962 5963 5964 5965 5965 5965 5966 5966 5967 5968 5969 5969 5970 5970 5970 5970 5970 5970 5970 5970 5970 5971 5970 5970 5971 5970 5970 5970 5970 5970 5970 5970
5954 5955 5956 5957 5957 5958 5959 5959 5960 5961 5962 5963 5963 5964 5965 5965 5966 5966 5967 5967 5968 5969 5969 5969 5970 5970 5970 5970 5970 5970 5971 5970 5970 5970 5970 5970 5970 5970 5970 5970 5970 5970
5954 5955 5956 5956 5957 5958 5958 5959 5960 5960 5961 5962 5963 5964 5964 5965 5965 5966 5966 5967 5967 5968 5968 5969 5969 5969 5969 5970 5970 5971 5971 5970 5970 5970 5970 5970 5970 5970 5970 5970 5970 5970
5953 5954 5955 5956 5956 5957 5958 5958 5959 5960 5960 5961 5962 5962 5963 5964 5965 5965 5966 5966 5967 5967 5968 5968 5969 5969 5969 5969 5970 5970 5970 5970 5970 5970 5970 5969 5970 5970 5970 5970 5970 5970
5951 5953 5954 5954 5955 5956 5957 5957 5958 5959 5959 5960 5960 5961 5962 5963 5964 5964 5965 5965 5966 5967 5967 5968 5968 5968 5969 5969 5969 5969 5970 5970 5970 5970 5969 5969 5969 5970 5970 5970 5970 5970
5950 5951 5952 5953 5954 5954 5955 5956 5957 5957 5958 5959 5959 5960 5961 5962 5963 5963 5964 5965 5965 5966 5966 5967 5968 5968 5968 5969 5969 5969 5969 5970 5970 5969 5969 5969 5969 5969 5969 5969 5969 5969
5948 5949 5951 5952 5952 5953 5954 5954 5955 5956 5957 5958 5958 5959 5960 5961 5961 5962 5963 5964 5964 5965 5965 5966 5967 5967 5968 5968 5968 5969 5969 5969 5969 5968 5968 5969 5969 5969 5969 5969 5969 5969
5945 5947 5948 5950 5950 5951 5952 5952 5953 5955 5956 5956 5957 5957 5958 5959 5960 5961 5962 5963 5963 5964 5964 5965 5965 5966 5966 5967 5967 5968 5968 5969 5969 5969 5969 5969 5968 5968 5968 5968 5968 5968
5943 5944 5946 5947 5948 5949 5949 5950 5951 5953 5954 5955 5955 5956 5956 5957 5958 5959 5960 5961 5962 5962 5963 5963 5963 5964 5965 5965 5966 5966 5967 5968 5968 5968 5968 5968 5968 5968 5968 5968 5968 5967
5941 5942 5943 5944 5946 5946 5947 5948 5949 5950 5952 5953 5954 5954 5955 5955 5956 5957 5958 5959 5959 5960 5961 5961 5962 5962 5963 5964 5964 5965 5965 5966 5967 5967 5968 5968 5968 5968 5968 5968 5967 5967
5939 5940 5941 5942 5943 5944 5945 5946 5947 5948 5949 5950 5951 5952 5953 5953 5954 5955 5955 5956 5957 5958 5959 5959 5960 5960 5961 5962 5962 5963 5964 5964 5965 5966 5966 5966 5967 5967 5967 5967 5967 5967
5936 5937 5938 5939 5940 5941 5942 5943 5944 5945 5946 5947 5948 5949 5950 5951 5951 5952 5953 5954 5955 5956 5957 5957 5958 5958 5959 5959 5960 5961 5962 5962 5963 5963 5964 5964 5965 5965 5965 5965 5965 5965
5934 5935 5936 5937 5937 5938 5939 5940 5941 5942 5943 5944 5945 5946 5947 5947 5948 5949 5950 5951 5952 5953 5954 5955 5955 5956 5956 5957 5958 5959 5959 5960 5961 5961 5962 5962 5963 5963 5963 5963 5963 5964
5931 5932 5933 5934 5934 5935 5936 5937 5938 5939 5940 5941 5942 5943 5944 5944 5945 5946 5947 5948 5950 5950 5951 5952 5952 5952 5953 5954 5955 5956 5957 5957 5958 5959 5959 5959 5960 5960 5961 5961 5961 5962
5928 5929 5930 5931 5931 5933 5933 5934 5935 5936 5937 5938 5939 5940 5941 5942 5942 5943 5944 5945 5947 5948 5948 5949 5949 5948 5949 5951 5952 5953 5954 5954 5955 5956 5956 5957 5957 5958 5958 5959 5959 5960
5924 5925 5926 5928 5928 5930 5930 5931 5932 5933 5934 5935 5935 5936 5937 5938 5939 5940 5940 5942 5943 5944 5945 5946 5946 5945 5946 5948 5948 5950 5951 5951 5952 5953 5953 5954 5955 5955 5955 5956 5956 5957
5921 5922 5923 5924 5925 5926 5927 5928 5929 5930 5931 5932 5932 5933 5934 5935 5936 5937 5937 5938 5939 5940 5941 5942 5941 5941 5943 5945 5945 5946 5947 5948 5948 5949 5950 5951 5952 5952 5952 5953 5954 5954
5918 5918 5919 5920 5921 5922 5923 5924 5925 5926 5927 5928 5929 5930 5931 5932 5933 5934 5935 5935 5935 5937 5938 5937 5936 5937 5940 5942 5942 5942 5943 5944 5945 5945 5946 5947 5948 5949 5949 5950 5950 5951
5914 5915 5915 5916 5917 5918 5919 5920 5921 5922 5923 5924 5925 5927 5927 5928 5929 5930 5930 5930 5931 5932 5933 5932 5932 5935 5938 5939 5939 5939 5939 5941 5941 5941 5942 5943 5944 5945 5945 5946 5946 5947
5911 5911 5912 5913 5913 5914 5916 5917 5918 5918 5919 5920 5921 5921 5922 5923 5924 5924 5924 5925 5927 5928 5927 5927 5929 5932 5934 5934 5934 5934 5935 5936 5937 5938 5939 5940 5940 5941 5941 5942 5943 5944
5907 5908 5909 5909 5910 5911 5912 5913 5913 5914 5914 5915 5916 5917 5917 5918 5919 5920 5920 5921 5922 5923 5922 5921 5922 5925 5927 5928 5928 5929 5930 5932 5933 5934 5935 5936 5936 5937 5937 5939 5940 5940
5903 5904 5905 5905 5906 5907 5908 5908 5909 5910 5911 5911 5912 5912 5913 5913 5915 5916 5916 5917 5917 5917 5916 5916 5917 5919 5920 5920 5921 5924 5926 5926 5928 5930 5931 5932 5933 5933 5932 5934 5934 5933
5899 5900 5901 5902 5902 5903 5904 5905 5906 5907 5908 5908 5908 5909 5909 5910 5911 5912 5912 5912 5912 5912 5911 5912 5913 5913 5912 5912 5915 5918 5920 5921 5922 5926 5927 5928 5929 5929 5929 5929 5930 5929
5895 5896 5897 5898 5899 5900 5901 5902 5902 5903 5904 5904 5904 5905 5905 5906 5907 5907 5907 5908 5908 5907 5907 5908 5907 5906 5906 5907 5909 5912 5915 5916 5918 5922 5923 5923 5924 5925 5926 5927 5927 5928